Regional Weather Roundup
Issued by NWS

Home | Current Version | Previous Version | Graphics & Text | Print | Product List | Glossary On
Versions: 1 2 3 4 5 6 7 8 9 10 11 12 13 14 15 16 17 18 19 20 21 22 23 24 25 26 27 28 29 30 31 32 33 34 35 36 37 38 39 40 41 42 43 44 45 46 47 48 49 50
000
ASUS43 KLSX 311357
RWRMO

WEATHER SUMMARY FOR MISSOURI
NATIONAL WEATHER SERVICE SPRINGFIELD MO
900 AM CDT MON AUG 31 2015

NOTE: "FAIR" INDICATES FEW OR NO CLOUDS BELOW 12,000 FEET WITH NO
       SIGNIFICANT WEATHER AND/OR OBSTRUCTIONS TO VISIBILITY.
       CURRENT SKY AND/OR WEATHER CONDITIONS ARE NOT AVAILABLE FOR
       CHILLICOTHE AND FARMINGTON.

MOZ001>031-035>038-043-044-053-054-311500-
...NORTHERN AND WESTERN MISSOURI...

CITY           SKY/WX    TMP DP  RH WIND       PRES   REMARKS
KANSAS CTY INT MOSUNNY   75  71  87 S8        29.99S
LEE`S SUMMIT   SUNNY     74  70  87 S7        30.01R
ST JOSEPH      SUNNY     74  71  91 S3        29.98S FOG
CHILLICOTHE      N/A     76  72  87 SE7       30.01S

$$
MOZ066>068-077>081-088>096-101>105-311500-
...SOUTHWEST MISSOURI...

CITY           SKY/WX    TMP DP  RH WIND       PRES   REMARKS
SPRINGFIELD    SUNNY     75  68  78 S10       30.06R
JOPLIN         SUNNY     76  68  76 S12       30.03R

$$
MOZ032>034-039>042-045>050-055>058-069>072-311500-
...CENTRAL MISSOURI...

CITY           SKY/WX    TMP DP  RH WIND       PRES   REMARKS
COLUMBIA       NOT AVBL
JEFFERSON CITY SUNNY     75  69  81 E6        30.04S
ROLLA          SUNNY     75  68  78 S10       30.07R
SEDALIA        SUNNY     78  69  73 S12       30.03S
WARRENSBURG    SUNNY     73  68  83 S6        30.01S

$$
MOZ051-052-059>065-311500-
...EAST CENTRAL MISSOURI...

CITY           SKY/WX    TMP DP  RH WIND       PRES   REMARKS
ST LOUIS INTL  MOSUNNY   78  69  73 SW7       30.07S

$$
MOZ072>076-082>087-097>100-106>115-311500-
...SOUTH CENTRAL AND SOUTHEAST MISSOURI...

CITY           SKY/WX    TMP DP  RH WIND       PRES   REMARKS
CAPE GIRARDEAU MOSUNNY   74  69  85 S6        30.11S
POPLAR BLUFF   MOSUNNY   74  70  87 S5        30.10R
WEST PLAINS    CLOUDY    72  69  90 S5        30.13R

$$



USA.gov is the U.S. government's official web portal to all federal, state and local government web resources and services.